Time,TemperatureF,DewpointF,PressureIn,WindDirection,WindDirectionDegrees,WindSpeedMPH,WindSpeedGustMPH,Humidity,HourlyPrecipIn,Conditions,Clouds,dailyrainin,SolarRadiationWatts/m^2,SoftwareType,DateUTC
2013-05-28 00:10:00,56.7,47.0,30.20,SW,228,0.0,0.0,71,0.00,,,0.00,0,weatherlink.com 1.10,2013-05-28 04:10:00,
2013-05-28 00:26:00,56.0,47.0,30.20,SW,228,0.0,1.0,73,0.00,,,0.00,0,weatherlink.com 1.10,2013-05-28 04:26:00,
2013-05-28 00:40:00,55.7,48.0,30.20,SW,228,0.0,0.0,74,0.00,,,0.00,0,weatherlink.com 1.10,2013-05-28 04:40:00,
2013-05-28 00:56:00,55.0,47.0,30.20,SW,228,0.0,0.0,75,0.00,,,0.00,0,weatherlink.com 1.10,2013-05-28 04:56:00,
2013-05-28 01:11:00,54.5,47.0,30.20,SW,228,0.0,0.0,77,0.00,,,0.00,0,weatherlink.com 1.10,2013-05-28 05:11:00,
2013-05-28 01:27:00,54.0,48.0,30.20,SW,228,0.0,0.0,79,0.00,,,0.00,0,weatherlink.com 1.10,2013-05-28 05:27:00,
2013-05-28 01:41:00,53.5,48.0,30.20,SW,228,0.0,0.0,81,0.00,,,0.00,0,weatherlink.com 1.10,2013-05-28 05:41:00,
2013-05-28 01:57:00,53.2,48.0,30.20,SW,228,0.0,0.0,82,0.00,,,0.00,0,weatherlink.com 1.10,2013-05-28 05:57:00,
2013-05-28 02:11:00,53.3,48.0,30.20,SW,228,0.0,0.0,83,0.00,,,0.00,0,weatherlink.com 1.10,2013-05-28 06:11:00,
2013-05-28 02:26:00,53.2,48.0,30.20,SW,228,0.0,0.0,83,0.00,,,0.00,0,weatherlink.com 1.10,2013-05-28 06:26:00,
2013-05-28 02:41:00,52.9,48.0,30.20,SW,228,0.0,0.0,84,0.00,,,0.00,0,weatherlink.com 1.10,2013-05-28 06:41:00,
2013-05-28 02:57:00,52.7,48.0,30.20,SW,228,0.0,0.0,84,0.00,,,0.00,0,weatherlink.com 1.10,2013-05-28 06:57:00,
2013-05-28 03:11:00,52.5,48.0,30.20,SW,228,0.0,0.0,85,0.00,,,0.00,0,weatherlink.com 1.10,2013-05-28 07:11:00,
2013-05-28 03:27:00,52.7,48.0,30.19,SW,228,0.0,0.0,85,0.00,,,0.00,0,weatherlink.com 1.10,2013-05-28 07:27:00,
2013-05-28 03:41:00,52.8,48.0,30.19,SW,228,0.0,0.0,85,0.00,,,0.00,0,weatherlink.com 1.10,2013-05-28 07:41:00,
2013-05-28 03:57:00,52.5,48.0,30.19,SW,228,0.0,0.0,85,0.00,,,0.00,0,weatherlink.com 1.10,2013-05-28 07:57:00,
2013-05-28 04:11:00,52.3,48.0,30.19,SW,228,0.0,0.0,86,0.00,,,0.00,0,weatherlink.com 1.10,2013-05-28 08:11:00,
2013-05-28 04:27:00,52.0,48.0,30.19,SW,228,0.0,0.0,86,0.00,,,0.00,0,weatherlink.com 1.10,2013-05-28 08:27:00,
2013-05-28 04:44:00,51.4,48.0,30.19,SW,228,0.0,0.0,87,0.00,,,0.00,0,weatherlink.com 1.10,2013-05-28 08:44:00,
2013-05-28 04:57:00,50.9,48.0,30.18,SW,228,0.0,0.0,88,0.00,,,0.00,0,weatherlink.com 1.10,2013-05-28 08:57:00,
2013-05-28 05:13:00,50.3,47.0,30.19,SW,228,0.0,0.0,89,0.00,,,0.00,0,weatherlink.com 1.10,2013-05-28 09:13:00,
2013-05-28 05:27:00,49.9,47.0,30.19,SW,228,0.0,0.0,90,0.00,,,0.00,0,weatherlink.com 1.10,2013-05-28 09:27:00,
2013-05-28 05:43:00,49.8,47.0,30.19,SW,228,0.0,0.0,91,0.00,,,0.00,11,weatherlink.com 1.10,2013-05-28 09:43:00,
2013-05-28 05:57:00,49.9,48.0,30.20,SW,228,0.0,0.0,92,0.00,,,0.00,16,weatherlink.com 1.10,2013-05-28 09:57:00,
2013-05-28 06:13:00,50.5,49.0,30.20,SW,227,0.0,0.0,93,0.00,,,0.00,30,weatherlink.com 1.10,2013-05-28 10:13:00,
2013-05-28 06:28:00,51.2,49.0,30.20,SW,227,0.0,0.0,92,0.00,,,0.00,37,weatherlink.com 1.10,2013-05-28 10:28:00,
2013-05-28 06:43:00,51.9,50.0,30.20,SW,227,0.0,0.0,92,0.00,,,0.00,53,weatherlink.com 1.10,2013-05-28 10:43:00,
2013-05-28 06:59:00,52.7,51.0,30.20,SW,227,0.0,0.0,92,0.00,,,0.00,77,weatherlink.com 1.10,2013-05-28 10:59:00,
2013-05-28 07:13:00,53.9,51.0,30.20,SW,227,0.0,0.0,91,0.00,,,0.00,114,weatherlink.com 1.10,2013-05-28 11:13:00,
2013-05-28 07:29:00,56.4,52.0,30.20,SW,227,0.0,1.0,85,0.00,,,0.00,139,weatherlink.com 1.10,2013-05-28 11:29:00,
2013-05-28 07:43:00,58.4,53.0,30.21,SW,227,0.0,1.0,82,0.00,,,0.00,156,weatherlink.com 1.10,2013-05-28 11:43:00,
2013-05-28 07:59:00,59.9,53.0,30.20,SW,227,0.0,1.0,78,0.00,,,0.00,165,weatherlink.com 1.10,2013-05-28 11:59:00,
2013-05-28 08:13:00,61.4,53.0,30.20,SW,227,0.0,2.0,73,0.00,,,0.00,230,weatherlink.com 1.10,2013-05-28 12:13:00,
2013-05-28 08:29:00,63.6,52.0,30.21,SW,227,0.0,3.0,66,0.00,,,0.00,218,weatherlink.com 1.10,2013-05-28 12:29:00,
2013-05-28 08:43:00,64.8,54.0,30.21,SW,226,0.0,3.0,67,0.00,,,0.00,148,weatherlink.com 1.10,2013-05-28 12:43:00,
2013-05-28 08:59:00,65.3,52.0,30.21,SW,226,0.0,1.0,63,0.00,,,0.00,221,weatherlink.com 1.10,2013-05-28 12:59:00,
2013-05-28 09:15:00,65.9,51.0,30.21,SW,226,0.0,2.0,60,0.00,,,0.00,236,weatherlink.com 1.10,2013-05-28 13:15:00,
2013-05-28 09:29:00,66.5,51.0,30.21,South,180,0.0,4.0,58,0.00,,,0.00,190,weatherlink.com 1.10,2013-05-28 13:29:00,
2013-05-28 09:45:00,66.4,51.0,30.21,SSE,165,0.0,5.0,57,0.00,,,0.00,172,weatherlink.com 1.10,2013-05-28 13:45:00,
2013-05-28 09:59:00,66.6,52.0,30.21,SSE,165,0.0,3.0,59,0.00,,,0.00,297,weatherlink.com 1.10,2013-05-28 13:59:00,
2013-05-28 10:15:00,66.9,51.0,30.21,South,179,1.0,5.0,57,0.00,,,0.00,148,weatherlink.com 1.10,2013-05-28 14:15:00,
2013-05-28 10:29:00,66.5,52.0,30.21,South,179,0.0,3.0,61,0.00,,,0.00,153,weatherlink.com 1.10,2013-05-28 14:29:00,
2013-05-28 10:45:00,65.9,55.0,30.21,South,179,0.0,1.0,67,0.00,,,0.00,209,weatherlink.com 1.10,2013-05-28 14:45:00,
2013-05-28 10:59:00,65.7,56.0,30.21,South,179,0.0,1.0,70,0.00,,,0.00,169,weatherlink.com 1.10,2013-05-28 14:59:00,
2013-05-28 11:15:00,65.1,55.0,30.22,South,179,0.0,1.0,71,0.00,,,0.00,134,weatherlink.com 1.10,2013-05-28 15:15:00,
2013-05-28 11:29:00,64.6,57.0,30.22,South,179,0.0,0.0,77,0.00,,,0.00,134,weatherlink.com 1.10,2013-05-28 15:29:00,
2013-05-28 11:45:00,64.1,57.0,30.21,South,179,0.0,0.0,79,0.00,,,0.00,104,weatherlink.com 1.10,2013-05-28 15:45:00,
2013-05-28 11:59:00,63.8,59.0,30.21,South,179,0.0,0.0,84,0.00,,,0.00,155,weatherlink.com 1.10,2013-05-28 15:59:00,
2013-05-28 12:15:00,63.7,60.0,30.21,South,179,0.0,2.0,87,0.00,,,0.00,176,weatherlink.com 1.10,2013-05-28 16:15:00,
2013-05-28 12:29:00,63.0,59.0,30.20,South,179,0.0,2.0,88,0.00,,,0.00,144,weatherlink.com 1.10,2013-05-28 16:29:00,
2013-05-28 12:45:00,62.6,59.0,30.20,South,179,0.0,2.0,89,0.01,,,0.01,137,weatherlink.com 1.10,2013-05-28 16:45:00,
2013-05-28 13:01:00,62.2,60.0,30.19,South,179,0.0,1.0,91,0.02,,,0.02,134,weatherlink.com 1.10,2013-05-28 17:01:00,
2013-05-28 13:15:00,62.2,60.0,30.19,South,179,0.0,2.0,92,0.03,,,0.03,116,weatherlink.com 1.10,2013-05-28 17:15:00,
2013-05-28 13:31:00,62.1,60.0,30.19,South,179,1.0,3.0,93,0.04,,,0.04,76,weatherlink.com 1.10,2013-05-28 17:31:00,
2013-05-28 13:45:00,62.0,60.0,30.19,South,179,0.0,3.0,94,0.04,,,0.05,56,weatherlink.com 1.10,2013-05-28 17:45:00,
2013-05-28 14:01:00,61.8,60.0,30.18,South,171,1.0,5.0,95,0.04,,,0.06,91,weatherlink.com 1.10,2013-05-28 18:01:00,
2013-05-28 14:15:00,61.8,60.0,30.18,SSE,161,0.0,5.0,95,0.04,,,0.07,46,weatherlink.com 1.10,2013-05-28 18:15:00,
2013-05-28 14:31:00,61.7,61.0,30.16,SE,146,0.0,9.0,96,0.06,,,0.10,121,weatherlink.com 1.10,2013-05-28 18:31:00,
2013-05-28 14:45:00,61.6,61.0,30.16,SSE,162,5.0,9.0,96,0.06,,,0.11,111,weatherlink.com 1.10,2013-05-28 18:45:00,
2013-05-28 15:01:00,61.3,60.0,30.16,SE,146,1.0,12.0,96,0.06,,,0.12,95,weatherlink.com 1.10,2013-05-28 19:01:00,
2013-05-28 15:15:00,60.8,59.0,30.16,SW,229,5.0,11.0,95,0.07,,,0.14,76,weatherlink.com 1.10,2013-05-28 19:15:00,
2013-05-28 15:31:00,60.5,59.0,30.15,SSE,157,6.0,8.0,96,0.05,,,0.15,67,weatherlink.com 1.10,2013-05-28 19:31:00,
2013-05-28 15:47:00,60.4,59.0,30.14,SSE,154,1.0,8.0,96,0.05,,,0.16,79,weatherlink.com 1.10,2013-05-28 19:47:00,
2013-05-28 16:01:00,60.3,59.0,30.14,South,188,2.0,9.0,96,0.04,,,0.16,28,weatherlink.com 1.10,2013-05-28 20:01:00,
2013-05-28 16:17:00,60.5,60.0,30.16,SSE,157,0.0,2.0,97,0.02,,,0.16,18,weatherlink.com 1.10,2013-05-28 20:17:00,
2013-05-28 16:31:00,60.6,60.0,30.15,SSE,157,0.0,3.0,97,0.01,,,0.16,40,weatherlink.com 1.10,2013-05-28 20:31:00,
2013-05-28 16:47:00,60.8,60.0,30.15,SSE,157,0.0,3.0,97,0.00,,,0.16,30,weatherlink.com 1.10,2013-05-28 20:47:00,
2013-05-28 17:01:00,61.2,60.0,30.14,SSE,155,3.0,3.0,97,0.00,,,0.16,63,weatherlink.com 1.10,2013-05-28 21:01:00,
2013-05-28 17:17:00,61.5,61.0,30.14,South,174,1.0,5.0,97,0.01,,,0.17,65,weatherlink.com 1.10,2013-05-28 21:17:00,
2013-05-28 17:31:00,61.8,61.0,30.14,South,175,0.0,3.0,97,0.02,,,0.18,81,weatherlink.com 1.10,2013-05-28 21:31:00,
2013-05-28 17:47:00,62.1,61.0,30.13,South,175,2.0,3.0,97,0.02,,,0.18,63,weatherlink.com 1.10,2013-05-28 21:47:00,
2013-05-28 18:01:00,62.2,61.0,30.14,South,185,0.0,3.0,97,0.02,,,0.18,19,weatherlink.com 1.10,2013-05-28 22:01:00,
2013-05-28 18:17:00,62.2,61.0,30.13,South,185,1.0,3.0,97,0.01,,,0.18,40,weatherlink.com 1.10,2013-05-28 22:17:00,
2013-05-28 18:32:00,62.3,62.0,30.12,South,185,0.0,3.0,97,0.00,,,0.18,39,weatherlink.com 1.10,2013-05-28 22:32:00,
2013-05-28 18:47:00,62.3,62.0,30.12,South,185,0.0,3.0,97,0.00,,,0.18,23,weatherlink.com 1.10,2013-05-28 22:47:00,
2013-05-28 19:03:00,62.3,62.0,30.12,South,185,0.0,3.0,97,0.00,,,0.18,25,weatherlink.com 1.10,2013-05-28 23:03:00,
2013-05-28 19:17:00,62.4,62.0,30.13,South,185,0.0,1.0,97,0.00,,,0.18,19,weatherlink.com 1.10,2013-05-28 23:17:00,
2013-05-28 19:32:00,62.5,62.0,30.13,South,185,0.0,0.0,97,0.00,,,0.18,12,weatherlink.com 1.10,2013-05-28 23:32:00,
2013-05-28 19:47:00,62.5,62.0,30.12,South,185,0.0,1.0,97,0.01,,,0.19,9,weatherlink.com 1.10,2013-05-28 23:47:00,
2013-05-28 20:02:00,62.4,62.0,30.12,South,185,0.0,0.0,97,0.01,,,0.19,5,weatherlink.com 1.10,2013-05-29 00:02:00,
2013-05-28 20:17:00,62.2,61.0,30.12,South,185,2.0,3.0,97,0.01,,,0.19,0,weatherlink.com 1.10,2013-05-29 00:17:00,
2013-05-28 20:33:00,62.0,61.0,30.12,South,185,0.0,2.0,97,0.01,,,0.19,0,weatherlink.com 1.10,2013-05-29 00:33:00,
2013-05-28 20:47:00,61.9,61.0,30.11,South,185,0.0,0.0,97,0.00,,,0.19,0,weatherlink.com 1.10,2013-05-29 00:47:00,
2013-05-28 21:03:00,61.6,61.0,30.12,South,185,0.0,1.0,97,0.00,,,0.19,0,weatherlink.com 1.10,2013-05-29 01:03:00,
2013-05-28 21:17:00,61.4,61.0,30.12,South,185,0.0,0.0,98,0.00,,,0.19,0,weatherlink.com 1.10,2013-05-29 01:17:00,
2013-05-28 21:33:00,61.3,61.0,30.12,South,185,0.0,0.0,97,0.00,,,0.19,0,weatherlink.com 1.10,2013-05-29 01:33:00,
2013-05-28 21:47:00,61.1,60.0,30.12,South,185,0.0,0.0,97,0.00,,,0.19,0,weatherlink.com 1.10,2013-05-29 01:47:00,
2013-05-28 22:03:00,60.8,60.0,30.13,South,185,0.0,0.0,97,0.01,,,0.20,0,weatherlink.com 1.10,2013-05-29 02:03:00,
2013-05-28 22:18:00,60.4,60.0,30.12,South,185,0.0,0.0,98,0.01,,,0.20,0,weatherlink.com 1.10,2013-05-29 02:18:00,
2013-05-28 22:33:00,60.5,60.0,30.12,South,185,0.0,1.0,98,0.01,,,0.20,0,weatherlink.com 1.10,2013-05-29 02:33:00,
2013-05-28 22:48:00,60.5,60.0,30.13,South,185,0.0,0.0,98,0.01,,,0.20,0,weatherlink.com 1.10,2013-05-29 02:48:00,
2013-05-28 23:02:00,60.5,60.0,30.13,South,185,0.0,0.0,98,0.00,,,0.20,0,weatherlink.com 1.10,2013-05-29 03:02:00,
2013-05-28 23:18:00,60.5,60.0,30.12,South,185,0.0,1.0,98,0.00,,,0.20,0,weatherlink.com 1.10,2013-05-29 03:18:00,
2013-05-28 23:32:00,60.5,60.0,30.11,South,185,0.0,1.0,98,0.00,,,0.20,0,weatherlink.com 1.10,2013-05-29 03:32:00,
2013-05-28 23:48:00,60.4,60.0,30.11,South,185,0.0,1.0,98,0.00,,,0.20,0,weatherlink.com 1.10,2013-05-29 03:48:00,